| time (UTC) | temp C | wind direction | speed KPH | gust KPH | rain 1hr cm | rain 24hr cm | rain mn cm | humidity % | barometer mb |
| 20260502130347 | 8 | 286 | 3.2 | 9.7 | 0.00 | 0.00 | 0.00 | 53 | 1022.8 |
| 20260502123329 | 6 | 325 | 3.2 | 4.8 | 0.00 | 0.00 | 0.00 | 60 | 1022.4 |
| 20260502122827 | 6 | 319 | 1.6 | 8.0 | 0.00 | 0.00 | 0.00 | 60 | 1022.3 |
| 20260502122322 | 6 | 290 | 1.6 | 8.0 | 0.00 | 0.00 | 0.00 | 61 | 1022.2 |
| 20260502121821 | 5 | 310 | 1.6 | 4.8 | 0.00 | 0.00 | 0.00 | 64 | 1021.8 |
| 20260502121318 | 5 | 310 | 3.2 | 4.8 | 0.00 | 0.00 | 0.00 | 65 | 1022.0 |
| 20260502120815 | 5 | 289 | 1.6 | 4.8 | 0.00 | 0.00 | 0.00 | 65 | 1022.1 |
| 20260502120311 | 5 | 276 | 0.0 | 3.2 | 0.00 | 0.00 | 0.00 | 64 | 1022.1 |
| 20260502115809 | 5 | 287 | 0.0 | 1.6 | 0.00 | 0.00 | 0.00 | 65 | 1022.0 |
| 20260502115306 | 4 | 261 | 1.6 | 1.6 | 0.00 | 0.00 | 0.00 | 65 | 1022.1 |
| 20260502114802 | 4 | 280 | 1.6 | 3.2 | 0.00 | 0.00 | 0.00 | 65 | 1021.8 |
| 20260502114259 | 3 | 274 | 1.6 | 3.2 | 0.00 | 0.00 | 0.00 | 66 | 1021.6 |
| 20260502113756 | 3 | 268 | 1.6 | 3.2 | 0.00 | 0.00 | 0.00 | 66 | 1021.6 |
| 20260502113254 | 3 | 261 | 1.6 | 1.6 | 0.00 | 0.00 | 0.00 | 69 | 1021.6 |
| 20260502112752 | 3 | 286 | 0.0 | 1.6 | 0.00 | 0.00 | 0.00 | 70 | 1021.4 |
| 20260502112249 | 3 | 288 | 0.0 | 1.6 | 0.00 | 0.00 | 0.00 | 68 | 1021.4 |
| 20260502111746 | 3 | 292 | 0.0 | 1.6 | 0.00 | 0.00 | 0.00 | 68 | 1021.6 |
| 20260502111243 | 3 | 277 | 0.0 | 1.6 | 0.00 | 0.00 | 0.00 | 67 | 1021.6 |
| 20260502110741 | 3 | 282 | 0.0 | 1.6 | 0.00 | 0.00 | 0.00 | 66 | 1021.3 |
| 20260502110238 | 4 | 275 | 0.0 | 3.2 | 0.00 | 0.00 | 0.00 | 65 | 1021.3 |
| 20260502105737 | 3 | 278 | 0.0 | 3.2 | 0.00 | 0.00 | 0.00 | 67 | 1021.3 |
| 20260502105232 | 3 | 277 | 0.0 | 1.6 | 0.00 | 0.00 | 0.00 | 67 | 1021.4 |
| 20260502104730 | 3 | 286 | 0.0 | 3.2 | 0.00 | 0.00 | 0.00 | 67 | 1021.2 |
| 20260502104227 | 4 | 278 | 0.0 | 3.2 | 0.00 | 0.00 | 0.00 | 66 | 1021.4 |
| 20260502103725 | 4 | 286 | 1.6 | 1.6 | 0.00 | 0.00 | 0.00 | 66 | 1021.4 |
| 20260502103223 | 3 | 267 | 0.0 | 1.6 | 0.00 | 0.00 | 0.00 | 67 | 1021.4 |
| 20260502102719 | 4 | 282 | 1.6 | 1.6 | 0.00 | 0.00 | 0.00 | 67 | 1021.3 |
| 20260502102216 | 4 | 283 | 0.0 | 3.2 | 0.00 | 0.00 | 0.00 | 67 | 1021.2 |
| 20260502101714 | 4 | 280 | 0.0 | 1.6 | 0.00 | 0.00 | 0.00 | 66 | 1021.3 |
| 20260502101212 | 4 | 288 | 0.0 | 1.6 | 0.00 | 0.00 | 0.00 | 66 | 1021.4 |
| 20260502100710 | 4 | 283 | 0.0 | 3.2 | 0.00 | 0.00 | 0.00 | 66 | 1021.2 |
| 20260502100208 | 4 | 302 | 1.6 | 1.6 | 0.00 | 0.00 | 0.00 | 67 | 1021.3 |
| 20260502091142 | 5 | 285 | 0.0 | 3.2 | 0.00 | 0.00 | 0.00 | 64 | 1021.2 |
| 20260502090639 | 5 | 269 | 1.6 | 3.2 | 0.00 | 0.00 | 0.00 | 64 | 1021.1 |
| 20260502090136 | 5 | 278 | 1.6 | 3.2 | 0.00 | 0.00 | 0.00 | 64 | 1021.3 |
| 20260502071534 | 6 | 321 | 4.8 | 8.0 | 0.00 | 0.00 | 0.00 | 64 | 1020.6 |
| 20260502071032 | 6 | 315 | 4.8 | 9.7 | 0.00 | 0.00 | 0.00 | 64 | 1020.7 |
| 20260502070529 | 6 | 320 | 4.8 | 8.0 | 0.00 | 0.00 | 0.00 | 64 | 1020.6 |
| 20260502070027 | 6 | 317 | 4.8 | 8.0 | 0.00 | 0.00 | 0.00 | 62 | 1020.7 |
| 20260502065526 | 6 | 305 | 3.2 | 4.8 | 0.00 | 0.00 | 0.00 | 62 | 1020.8 |
| 20260502065023 | 6 | 322 | 1.6 | 8.0 | 0.00 | 0.00 | 0.00 | 63 | 1021.0 |
| 20260502064521 | 6 | 324 | 1.6 | 4.8 | 0.00 | 0.00 | 0.00 | 62 | 1020.8 |
| 20260502064018 | 6 | 309 | 3.2 | 3.2 | 0.00 | 0.00 | 0.00 | 63 | 1020.7 |
| 20260502063516 | 6 | 298 | 3.2 | 3.2 | 0.00 | 0.00 | 0.00 | 65 | 1020.6 |
| 20260502063014 | 6 | 310 | 1.6 | 3.2 | 0.00 | 0.00 | 0.00 | 64 | 1020.9 |
| 20260502062510 | 6 | 291 | 0.0 | 0.0 | 0.00 | 0.00 | 0.00 | 63 | 1020.9 |
| 20260502062009 | 6 | 285 | 0.0 | 1.6 | 0.00 | 0.00 | 0.00 | 60 | 1021.0 |
| 20260502061506 | 7 | 289 | 1.6 | 1.6 | 0.00 | 0.00 | 0.00 | 59 | 1020.6 |
| 20260502061003 | 7 | 289 | 0.0 | 3.2 | 0.00 | 0.00 | 0.00 | 59 | 1020.6 |
| 20260502060458 | 7 | 310 | 1.6 | 3.2 | 0.00 | 0.00 | 0.00 | 58 | 1020.9 |
| 20260502055955 | 7 | 316 | 3.2 | 4.8 | 0.00 | 0.00 | 0.00 | 57 | 1020.8 |
| 20260502055452 | 7 | 346 | 3.2 | 4.8 | 0.00 | 0.00 | 0.00 | 57 | 1020.8 |
| 20260502054952 | 7 | 333 | 4.8 | 4.8 | 0.00 | 0.00 | 0.00 | 58 | 1020.7 |
| 20260502054450 | 7 | 329 | 1.6 | 4.8 | 0.00 | 0.00 | 0.00 | 57 | 1020.6 |
| 20260502053947 | 7 | 304 | 3.2 | 4.8 | 0.00 | 0.00 | 0.00 | 58 | 1020.3 |
| 20260502053444 | 7 | 333 | 4.8 | 4.8 | 0.00 | 0.00 | 0.00 | 58 | 1020.4 |
| 20260502052942 | 7 | 323 | 4.8 | 4.8 | 0.00 | 0.00 | 0.00 | 56 | 1020.5 |
| 20260502052439 | 7 | 312 | 4.8 | 8.0 | 0.00 | 0.00 | 0.00 | 57 | 1020.6 |
| 20260502051938 | 7 | 328 | 3.2 | 4.8 | 0.00 | 0.00 | 0.00 | 57 | 1020.4 |
| 20260502051435 | 7 | 319 | 4.8 | 8.0 | 0.00 | 0.00 | 0.00 | 57 | 1020.3 |
| 20260502050932 | 7 | 327 | 3.2 | 8.0 | 0.00 | 0.00 | 0.00 | 57 | 1020.5 |
| 20260502050429 | 8 | 332 | 4.8 | 8.0 | 0.00 | 0.00 | 0.00 | 57 | 1020.4 |
| 20260502045926 | 7 | 357 | 6.4 | 8.0 | 0.00 | 0.00 | 0.00 | 57 | 1020.3 |
| 20260502045423 | 7 | 313 | 3.2 | 8.0 | 0.00 | 0.00 | 0.00 | 58 | 1020.2 |
| 20260502044920 | 8 | 299 | 3.2 | 8.0 | 0.00 | 0.00 | 0.00 | 58 | 1020.4 |
| 20260502044415 | 8 | 326 | 4.8 | 8.0 | 0.00 | 0.00 | 0.00 | 57 | 1020.2 |
| 20260502043912 | 8 | 317 | 3.2 | 4.8 | 0.00 | 0.00 | 0.00 | 57 | 1020.5 |
| 20260502043410 | 8 | 316 | 3.2 | 8.0 | 0.00 | 0.00 | 0.00 | 56 | 1020.3 |
| 20260502042909 | 8 | 296 | 4.8 | 4.8 | 0.00 | 0.00 | 0.00 | 56 | 1020.2 |
| 20260502042408 | 8 | 352 | 4.8 | 8.0 | 0.00 | 0.00 | 0.00 | 56 | 1020.4 |
| 20260502041904 | 8 | 314 | 3.2 | 4.8 | 0.00 | 0.00 | 0.00 | 56 | 1020.2 |
| 20260502041401 | 8 | 321 | 3.2 | 4.8 | 0.00 | 0.00 | 0.00 | 55 | 1020.4 |
| 20260502040859 | 8 | 317 | 3.2 | 4.8 | 0.00 | 0.00 | 0.00 | 55 | 1020.3 |
| 20260502040355 | 8 | 301 | 1.6 | 4.8 | 0.00 | 0.00 | 0.00 | 55 | 1020.5 |
| 20260502035851 | 9 | 314 | 3.2 | 4.8 | 0.00 | 0.00 | 0.00 | 55 | 1020.4 |
| 20260502035348 | 9 | 313 | 4.8 | 8.0 | 0.00 | 0.00 | 0.00 | 53 | 1020.2 |
| 20260502034845 | 9 | 316 | 1.6 | 4.8 | 0.00 | 0.00 | 0.00 | 55 | 1020.3 |
| 20260502034344 | 9 | 324 | 4.8 | 4.8 | 0.00 | 0.00 | 0.00 | 54 | 1020.3 |
| 20260502033842 | 9 | 334 | 3.2 | 8.0 | 0.00 | 0.00 | 0.00 | 54 | 1020.1 |
| 20260502033339 | 10 | 302 | 3.2 | 8.0 | 0.00 | 0.00 | 0.00 | 55 | 1020.0 |
| 20260502032836 | 10 | 300 | 3.2 | 3.2 | 0.00 | 0.00 | 0.00 | 55 | 1020.0 |
| 20260502032332 | 10 | 303 | 3.2 | 4.8 | 0.00 | 0.00 | 0.00 | 55 | 1020.2 |
| 20260502031830 | 10 | 307 | 1.6 | 4.8 | 0.00 | 0.00 | 0.00 | 54 | 1020.0 |
| 20260502031328 | 10 | 316 | 1.6 | 4.8 | 0.00 | 0.00 | 0.00 | 55 | 1019.9 |
| 20260502030826 | 10 | 289 | 1.6 | 4.8 | 0.00 | 0.00 | 0.00 | 56 | 1019.6 |
| 20260502030324 | 10 | 319 | 1.6 | 4.8 | 0.00 | 0.00 | 0.00 | 55 | 1019.8 |
| 20260502025820 | 10 | 299 | 1.6 | 4.8 | 0.00 | 0.00 | 0.00 | 54 | 1019.8 |
| 20260502025319 | 10 | 301 | 3.2 | 8.0 | 0.00 | 0.00 | 0.00 | 53 | 1019.6 |
| 20260502024816 | 10 | 294 | 3.2 | 14.5 | 0.00 | 0.00 | 0.00 | 54 | 1019.5 |
| 20260502024314 | 10 | 282 | 4.8 | 8.0 | 0.00 | 0.00 | 0.00 | 57 | 1019.5 |
| 20260502023811 | 10 | 305 | 3.2 | 4.8 | 0.00 | 0.00 | 0.00 | 59 | 1019.4 |
| 20260502023309 | 10 | 295 | 3.2 | 8.0 | 0.00 | 0.00 | 0.00 | 61 | 1019.1 |
| 20260502022806 | 10 | 316 | 3.2 | 4.8 | 0.00 | 0.00 | 0.00 | 61 | 1019.1 |
| 20260502022306 | 10 | 303 | 3.2 | 3.2 | 0.00 | 0.00 | 0.00 | 61 | 1019.2 |
| 20260502021800 | 10 | 279 | 0.0 | 1.6 | 0.00 | 0.00 | 0.00 | 57 | 1019.0 |
| 20260502021257 | 11 | 280 | 0.0 | 1.6 | 0.00 | 0.00 | 0.00 | 56 | 1018.8 |
| 20260502020754 | 11 | 288 | 0.0 | 1.6 | 0.00 | 0.00 | 0.00 | 57 | 1018.8 |
| 20260502020251 | 11 | 285 | 0.0 | 1.6 | 0.00 | 0.00 | 0.00 | 57 | 1018.6 |
| 20260502015749 | 11 | 279 | 0.0 | 0.0 | 0.00 | 0.00 | 0.00 | 56 | 1018.6 |
| 20260502015245 | 11 | 279 | 0.0 | 0.0 | 0.00 | 0.00 | 0.00 | 54 | 1018.2 |
| 20260502014742 | 11 | 278 | 1.6 | 1.6 | 0.00 | 0.00 | 0.00 | 54 | 1018.1 |
| 20260502014239 | 11 | 284 | 0.0 | 1.6 | 0.00 | 0.00 | 0.00 | 55 | 1018.0 |
| 20260502013736 | 12 | 288 | 0.0 | 1.6 | 0.00 | 0.00 | 0.00 | 57 | 1018.1 |
| 20260502013231 | 12 | 319 | 1.6 | 1.6 | 0.00 | 0.00 | 0.00 | 52 | 1018.0 |
| 20260502012728 | 12 | 275 | 0.0 | 0.0 | 0.00 | 0.00 | 0.00 | 51 | 1018.0 |
| 20260502012226 | 12 | 271 | 0.0 | 1.6 | 0.00 | 0.00 | 0.00 | 50 | 1017.9 |
| 20260502011723 | 13 | 283 | 0.0 | 1.6 | 0.00 | 0.00 | 0.00 | 49 | 1017.8 |
| 20260502011219 | 13 | 281 | 0.0 | 3.2 | 0.00 | 0.00 | 0.00 | 48 | 1017.9 |
| 20260502010717 | 13 | 288 | 1.6 | 1.6 | 0.00 | 0.00 | 0.00 | 48 | 1017.7 |
| 20260502010213 | 14 | 312 | 3.2 | 9.7 | 0.00 | 0.00 | 0.00 | 46 | 1017.7 |
| 20260502005710 | 14 | 275 | 0.0 | 4.8 | 0.00 | 0.00 | 0.00 | 46 | 1017.7 |
| 20260502005208 | 15 | 310 | 1.6 | 4.8 | 0.00 | 0.00 | 0.00 | 46 | 1017.8 |
| 20260502004704 | 15 | 281 | 1.6 | 11.3 | 0.00 | 0.00 | 0.00 | 44 | 1017.5 |
| 20260502004200 | 15 | 338 | 3.2 | 8.0 | 0.00 | 0.00 | 0.00 | 43 | 1017.6 |
| 20260502003658 | 15 | 307 | 8.0 | 8.0 | 0.00 | 0.00 | 0.00 | 43 | 1017.5 |
| 20260502003155 | 15 | 341 | 6.4 | 11.3 | 0.00 | 0.00 | 0.00 | 41 | 1017.5 |
| 20260502002651 | 15 | 306 | 3.2 | 8.0 | 0.00 | 0.00 | 0.00 | 42 | 1017.3 |
| 20260502002149 | 16 | 317 | 6.4 | 9.7 | 0.00 | 0.00 | 0.00 | 42 | 1017.4 |
| 20260502001646 | 16 | 271 | 4.8 | 9.7 | 0.00 | 0.00 | 0.00 | 42 | 1017.3 |
| 20260502001143 | 16 | 2 | 8.0 | 12.9 | 0.00 | 0.00 | 0.00 | 40 | 1017.1 |
| 20260502000641 | 16 | 321 | 6.4 | 11.3 | 0.00 | 0.00 | 0.00 | 39 | 1017.2 |
| 20260502000139 | 16 | 329 | 4.8 | 8.0 | 0.00 | 0.00 | 0.00 | 39 | 1016.9 |
| 20260501235634 | 16 | 14 | 6.4 | 9.7 | 0.00 | 0.00 | 0.00 | 39 | 1017.1 |
| 20260501235131 | 16 | 328 | 6.4 | 9.7 | 0.00 | 0.00 | 0.00 | 39 | 1017.1 |
| 20260501234626 | 17 | 334 | 11.3 | 14.5 | 0.00 | 0.00 | 0.00 | 38 | 1017.1 |
| 20260501234124 | 16 | 338 | 6.4 | 14.5 | 0.00 | 0.00 | 0.00 | 38 | 1017.1 |
| 20260501233622 | 16 | 335 | 11.3 | 16.1 | 0.00 | 0.00 | 0.00 | 38 | 1017.0 |
| 20260501233119 | 17 | 333 | 14.5 | 16.1 | 0.00 | 0.00 | 0.00 | 36 | 1017.1 |
| 20260501232615 | 17 | 334 | 3.2 | 11.3 | 0.00 | 0.00 | 0.00 | 38 | 1017.1 |
| 20260501232113 | 17 | 269 | 6.4 | 14.5 | 0.00 | 0.00 | 0.00 | 36 | 1017.1 |
| 20260501231610 | 17 | 270 | 8.0 | 14.5 | 0.00 | 0.00 | 0.00 | 36 | 1016.9 |
| 20260501231108 | 17 | 339 | 8.0 | 16.1 | 0.00 | 0.00 | 0.00 | 36 | 1016.8 |
| 20260501230606 | 17 | 30 | 6.4 | 9.7 | 0.00 | 0.00 | 0.00 | 38 | 1016.9 |
| 20260501230104 | 17 | 268 | 1.6 | 8.0 | 0.00 | 0.00 | 0.00 | 37 | 1016.6 |
| 20260501225601 | 16 | 310 | 8.0 | 14.5 | 0.00 | 0.00 | 0.00 | 38 | 1016.9 |
| 20260501225057 | 16 | 278 | 8.0 | 16.1 | 0.00 | 0.00 | 0.00 | 39 | 1016.9 |
| 20260501224555 | 16 | 304 | 9.7 | 12.9 | 0.00 | 0.00 | 0.00 | 38 | 1016.8 |
| 20260501224052 | 17 | 309 | 6.4 | 8.0 | 0.00 | 0.00 | 0.00 | 36 | 1016.7 |
| 20260501223548 | 17 | 348 | 6.4 | 16.1 | 0.00 | 0.00 | 0.00 | 38 | 1016.8 |
| 20260501223044 | 17 | 304 | 11.3 | 24.1 | 0.00 | 0.00 | 0.00 | 35 | 1016.9 |
| 20260501222541 | 17 | 302 | 12.9 | 20.9 | 0.00 | 0.00 | 0.00 | 36 | 1017.1 |
| 20260501222038 | 18 | 319 | 9.7 | 14.5 | 0.00 | 0.00 | 0.00 | 35 | 1016.8 |
| 20260501221534 | 17 | 279 | 4.8 | 11.3 | 0.00 | 0.00 | 0.00 | 38 | 1016.7 |
| 20260501221032 | 17 | 259 | 4.8 | 12.9 | 0.00 | 0.00 | 0.00 | 35 | 1016.9 |
| 20260501220530 | 17 | 318 | 4.8 | 9.7 | 0.00 | 0.00 | 0.00 | 38 | 1016.8 |
| 20260501220026 | 17 | 272 | 3.2 | 9.7 | 0.00 | 0.00 | 0.00 | 40 | 1016.8 |
| 20260501215522 | 17 | 311 | 6.4 | 8.0 | 0.00 | 0.00 | 0.00 | 38 | 1017.0 |
| 20260501215018 | 17 | 293 | 6.4 | 17.7 | 0.00 | 0.00 | 0.00 | 37 | 1017.0 |
| 20260501214514 | 17 | 335 | 11.3 | 14.5 | 0.00 | 0.00 | 0.00 | 36 | 1017.1 |
| 20260501214009 | 17 | 237 | 9.7 | 12.9 | 0.00 | 0.00 | 0.00 | 37 | 1017.2 |
| 20260501213507 | 17 | 293 | 3.2 | 11.3 | 0.00 | 0.00 | 0.00 | 40 | 1017.2 |
| 20260501213002 | 17 | 277 | 3.2 | 9.7 | 0.00 | 0.00 | 0.00 | 40 | 1017.3 |
| 20260501212459 | 17 | 250 | 8.0 | 12.9 | 0.00 | 0.00 | 0.00 | 38 | 1017.3 |
| 20260501211956 | 17 | 262 | 8.0 | 11.3 | 0.00 | 0.00 | 0.00 | 39 | 1017.3 |
| 20260501211453 | 18 | 309 | 4.8 | 9.7 | 0.00 | 0.00 | 0.00 | 38 | 1017.7 |
| 20260501210950 | 17 | 268 | 4.8 | 9.7 | 0.00 | 0.00 | 0.00 | 38 | 1017.5 |
| 20260501210447 | 17 | 286 | 9.7 | 12.9 | 0.00 | 0.00 | 0.00 | 39 | 1017.6 |
| 20260501205943 | 17 | 270 | 3.2 | 12.9 | 0.00 | 0.00 | 0.00 | 39 | 1017.9 |
| 20260501205440 | 17 | 274 | 6.4 | 9.7 | 0.00 | 0.00 | 0.00 | 39 | 1017.8 |
| 20260501204938 | 17 | 261 | 14.5 | 20.9 | 0.00 | 0.00 | 0.00 | 37 | 1018.0 |
| 20260501204433 | 18 | 245 | 8.0 | 11.3 | 0.00 | 0.00 | 0.00 | 38 | 1018.1 |
| 20260501203930 | 18 | 279 | 11.3 | 20.9 | 0.00 | 0.00 | 0.00 | 37 | 1018.3 |
| 20260501203427 | 18 | 281 | 8.0 | 12.9 | 0.00 | 0.00 | 0.00 | 40 | 1018.2 |
| 20260501202924 | 18 | 289 | 12.9 | 16.1 | 0.00 | 0.00 | 0.00 | 37 | 1018.1 |
| 20260501202421 | 17 | 254 | 4.8 | 12.9 | 0.00 | 0.00 | 0.00 | 40 | 1018.2 |
| 20260501201918 | 17 | 252 | 4.8 | 9.7 | 0.00 | 0.00 | 0.00 | 38 | 1018.2 |
| 20260501201415 | 17 | 298 | 8.0 | 17.7 | 0.00 | 0.00 | 0.00 | 38 | 1018.2 |
| 20260501200911 | 17 | 277 | 4.8 | 9.7 | 0.00 | 0.00 | 0.00 | 43 | 1018.2 |
| 20260501200409 | 17 | 300 | 11.3 | 14.5 | 0.00 | 0.00 | 0.00 | 38 | 1018.5 |
| 20260501195906 | 18 | 306 | 11.3 | 20.9 | 0.00 | 0.00 | 0.00 | 37 | 1018.7 |
| 20260501195402 | 17 | 334 | 8.0 | 12.9 | 0.00 | 0.00 | 0.00 | 37 | 1018.6 |
| 20260501194858 | 18 | 282 | 3.2 | 17.7 | 0.00 | 0.00 | 0.00 | 35 | 1018.7 |
| 20260501194354 | 18 | 313 | 8.0 | 16.1 | 0.00 | 0.00 | 0.00 | 38 | 1018.3 |
| 20260501193850 | 18 | 335 | 1.6 | 8.0 | 0.00 | 0.00 | 0.00 | 37 | 1018.8 |
| 20260501193349 | 17 | 255 | 9.7 | 16.1 | 0.00 | 0.00 | 0.00 | 36 | 1018.9 |
| 20260501192846 | 17 | 286 | 11.3 | 16.1 | 0.00 | 0.00 | 0.00 | 39 | 1019.0 |
| 20260501192343 | 17 | 204 | 8.0 | 17.7 | 0.00 | 0.00 | 0.00 | 37 | 1018.6 |
| 20260501191840 | 17 | 298 | 4.8 | 12.9 | 0.00 | 0.00 | 0.00 | 40 | 1018.6 |
| 20260501191337 | 17 | 298 | 6.4 | 16.1 | 0.00 | 0.00 | 0.00 | 39 | 1018.8 |
| 20260501190834 | 17 | 309 | 8.0 | 17.7 | 0.00 | 0.00 | 0.00 | 41 | 1018.6 |
| 20260501190330 | 17 | 268 | 1.6 | 9.7 | 0.00 | 0.00 | 0.00 | 42 | 1018.8 |
| 20260501185825 | 18 | 298 | 4.8 | 12.9 | 0.00 | 0.00 | 0.00 | 38 | 1018.7 |
| 20260501185322 | 17 | 261 | 8.0 | 16.1 | 0.00 | 0.00 | 0.00 | 38 | 1018.8 |
| 20260501184817 | 17 | 328 | 8.0 | 16.1 | 0.00 | 0.00 | 0.00 | 39 | 1018.6 |
| 20260501184313 | 17 | 266 | 4.8 | 11.3 | 0.00 | 0.00 | 0.00 | 42 | 1018.6 |
| 20260501183809 | 17 | 265 | 4.8 | 14.5 | 0.00 | 0.00 | 0.00 | 39 | 1018.7 |
| 20260501183307 | 16 | 322 | 8.0 | 17.7 | 0.00 | 0.00 | 0.00 | 40 | 1019.0 |
| 20260501182803 | 16 | 313 | 9.7 | 16.1 | 0.00 | 0.00 | 0.00 | 39 | 1018.9 |
| 20260501182300 | 16 | 279 | 6.4 | 12.9 | 0.00 | 0.00 | 0.00 | 40 | 1018.7 |
| 20260501181756 | 16 | 289 | 1.6 | 8.0 | 0.00 | 0.00 | 0.00 | 43 | 1019.0 |
| 20260501181254 | 17 | 215 | 9.7 | 20.9 | 0.00 | 0.00 | 0.00 | 40 | 1019.0 |
| 20260501180751 | 17 | 304 | 9.7 | 14.5 | 0.00 | 0.00 | 0.00 | 38 | 1019.0 |
| 20260501180247 | 16 | 347 | 8.0 | 11.3 | 0.00 | 0.00 | 0.00 | 41 | 1019.0 |
| 20260501175744 | 16 | 272 | 4.8 | 11.3 | 0.00 | 0.00 | 0.00 | 41 | 1018.9 |
| 20260501175241 | 16 | 252 | 8.0 | 9.7 | 0.00 | 0.00 | 0.00 | 40 | 1019.1 |
| 20260501174737 | 17 | 200 | 6.4 | 12.9 | 0.00 | 0.00 | 0.00 | 38 | 1019.2 |
| 20260501174235 | 17 | 264 | 1.6 | 9.7 | 0.00 | 0.00 | 0.00 | 40 | 1019.3 |
| 20260501173733 | 18 | 224 | 8.0 | 12.9 | 0.00 | 0.00 | 0.00 | 39 | 1019.5 |
| 20260501173230 | 17 | 11 | 3.2 | 11.3 | 0.00 | 0.00 | 0.00 | 38 | 1019.4 |
| 20260501172726 | 16 | 202 | 11.3 | 12.9 | 0.00 | 0.00 | 0.00 | 38 | 1019.7 |
| 20260501172221 | 16 | 335 | 9.7 | 12.9 | 0.00 | 0.00 | 0.00 | 41 | 1019.3 |
| 20260501171717 | 16 | 284 | 11.3 | 22.5 | 0.00 | 0.00 | 0.00 | 38 | 1019.4 |
| 20260501171215 | 17 | 324 | 8.0 | 11.3 | 0.00 | 0.00 | 0.00 | 38 | 1019.7 |
| 20260501170711 | 16 | 317 | 4.8 | 9.7 | 0.00 | 0.00 | 0.00 | 40 | 1019.5 |
| 20260501170208 | 16 | 184 | 6.4 | 9.7 | 0.00 | 0.00 | 0.00 | 42 | 1019.6 |
| 20260501165706 | 16 | 271 | 6.4 | 9.7 | 0.00 | 0.00 | 0.00 | 40 | 1019.7 |
| 20260501165203 | 16 | 249 | 1.6 | 4.8 | 0.00 | 0.00 | 0.00 | 43 | 1019.9 |
| 20260501164700 | 16 | 285 | 6.4 | 9.7 | 0.00 | 0.00 | 0.00 | 41 | 1019.7 |
| 20260501164157 | 16 | 246 | 4.8 | 12.9 | 0.00 | 0.00 | 0.00 | 42 | 1019.7 |
| 20260501163653 | 16 | 259 | 11.3 | 12.9 | 0.00 | 0.00 | 0.00 | 40 | 1019.7 |
| 20260501163150 | 15 | 245 | 4.8 | 12.9 | 0.00 | 0.00 | 0.00 | 48 | 1019.7 |
| 20260501162646 | 15 | 222 | 6.4 | 9.7 | 0.00 | 0.00 | 0.00 | 41 | 1019.9 |
| 20260501162143 | 15 | 251 | 1.6 | 8.0 | 0.00 | 0.00 | 0.00 | 40 | 1019.9 |
| 20260501161640 | 15 | 244 | 8.0 | 14.5 | 0.00 | 0.00 | 0.00 | 39 | 1019.7 |
| 20260501161137 | 15 | 253 | 6.4 | 9.7 | 0.00 | 0.00 | 0.00 | 40 | 1019.7 |
| 20260501160634 | 15 | 197 | 8.0 | 16.1 | 0.00 | 0.00 | 0.00 | 44 | 1019.9 |
| 20260501160131 | 15 | 261 | 3.2 | 9.7 | 0.00 | 0.00 | 0.00 | 46 | 1019.7 |
| 20260501155628 | 15 | 243 | 8.0 | 17.7 | 0.00 | 0.00 | 0.00 | 41 | 1019.9 |
| 20260501155125 | 15 | 319 | 3.2 | 11.3 | 0.00 | 0.00 | 0.00 | 50 | 1019.8 |
| 20260501154622 | 14 | 195 | 8.0 | 9.7 | 0.00 | 0.00 | 0.00 | 46 | 1019.8 |
| 20260501154120 | 15 | 267 | 8.0 | 14.5 | 0.00 | 0.00 | 0.00 | 43 | 1019.9 |
| 20260501153616 | 13 | 251 | 8.0 | 12.9 | 0.00 | 0.00 | 0.00 | 51 | 1019.7 |
| 20260501153113 | 14 | 224 | 8.0 | 9.7 | 0.00 | 0.00 | 0.00 | 49 | 1019.8 |
| 20260501152610 | 14 | 264 | 11.3 | 17.7 | 0.00 | 0.00 | 0.00 | 49 | 1019.8 |
| 20260501152107 | 14 | 226 | 3.2 | 11.3 | 0.00 | 0.00 | 0.00 | 51 | 1019.8 |
| 20260501151604 | 13 | 261 | 3.2 | 8.0 | 0.00 | 0.00 | 0.00 | 52 | 1019.9 |
| 20260501151101 | 13 | 271 | 3.2 | 8.0 | 0.00 | 0.00 | 0.00 | 55 | 1020.0 |
| 20260501150556 | 13 | 271 | 8.0 | 12.9 | 0.00 | 0.00 | 0.00 | 53 | 1019.8 |
| 20260501150053 | 12 | 185 | 3.2 | 8.0 | 0.00 | 0.00 | 0.00 | 58 | 1020.1 |
| 20260501145549 | 12 | 187 | 6.4 | 14.5 | 0.00 | 0.00 | 0.00 | 55 | 1019.6 |
| 20260501145048 | 13 | 204 | 4.8 | 8.0 | 0.00 | 0.00 | 0.00 | 52 | 1019.6 |
| 20260501144543 | 12 | 252 | 3.2 | 8.0 | 0.00 | 0.00 | 0.00 | 56 | 1019.7 |
| 20260501144038 | 12 | 239 | 4.8 | 12.9 | 0.00 | 0.00 | 0.00 | 54 | 1019.7 |
| 20260501143535 | 12 | 180 | 8.0 | 11.3 | 0.00 | 0.00 | 0.00 | 53 | 1019.5 |
| 20260501143032 | 12 | 177 | 3.2 | 8.0 | 0.00 | 0.00 | 0.00 | 58 | 1019.8 |